Weather Roundup
Issued by NWS Corpus Christi, TX

Home | Current Version | Previous Version | Text Only | Print | Product List | Glossary On
Versions: 1 2 3 4 5 6 7 8 9 10 11 12 13 14 15 16 17 18 19 20 21 22 23 24 25 26 27 28 29 30 31 32 33 34 35 36 37 38 39 40 41 42 43 44 45 46 47 48 49 50
000
ASUS44 KCRP 012310
HRRCRP

SOUTH TEXAS REGIONAL WEATHER ROUNDUP
NATIONAL WEATHER SERVICE CORPUS CHRISTI TX
600 PM CDT SAT AUG 01 2015


TXZ229>244-020000-
...CORPUS CHRISTI AREA OBSERVATIONS...

CITY           SKY/WX    TMP DP  RH WIND       PRES   REMARKS
CORPUS CHRISTI MOSUNNY   94  69  44 E13       29.87F HX  99
NAS CORPUS CHR MOSUNNY   88  69  53 SE14      29.87F HX  92
ROCKPORT       MOSUNNY   92  71  50 SE14      29.87S HX  98
KINGSVILLE NAS MOSUNNY   94  75  54 E15G22    29.87S HX 105
ALICE          MOSUNNY   98  67  36 E8        29.86F HX 102
FALFURRIAS     MOSUNNY   94  67  40 E13       29.87R HX  98
$$

...VICTORIA AREA OBSERVATIONS...

CITY           SKY/WX    TMP DP  RH WIND       PRES   REMARKS
VICTORIA       SUNNY     96  62  32 NE10      29.87F HX  97
BEEVILLE       FAIR      96  65  35 NE7       29.88S HX  98
PLEASANTON     SUNNY     99  58  25 E9        29.89S HX  98
SAN ANTONIO    MOSUNNY   97  55  24 E14       29.92F HX  95
$$

...LAREDO AREA OBSERVATIONS...

CITY           SKY/WX    TMP DP  RH WIND       PRES   REMARKS
LAREDO         MOSUNNY  100  65  31 NE9G23    29.88F HX 103
COTULLA        MOSUNNY  100  63  29 E6        29.88F HX 102
DEL RIO        CLOUDY    85  72  65 N5        29.91S HX  91
MCALLEN        MOSUNNY   99  67  35 E9        29.86F HX 103
HEBBRONVILLE     N/A     98  58  27 E10       29.89F HX  97
$$

...OTHER TEXAS OBSERVATIONS...

CITY           SKY/WX    TMP DP  RH WIND       PRES   REMARKS
BROWNSVILLE    PTSUNNY   85  74  69 SE12      29.89S HX  92
HOUSTON        MOSUNNY   95  62  33 NE8       29.89F HX  96
COL. STATION   SUNNY     97  60  29 VRB6      29.90F HX  97
AUSTIN         MOSUNNY   95  59  30 E12       29.91F HX  94
WACO           SUNNY     97  56  25 E10G25    29.93F HX  95
FORT WORTH     PTSUNNY   97  52  21 E6        29.94F HX  94
WICHITA FALLS  CLOUDY    83  70  64 S8        29.98F
LUBBOCK        MOSUNNY   89  67  47 S13       30.04F HX  92
EL PASO        MOSUNNY   95  48  20 E8        30.00F HX  91
$$

...MARINE OBSERVATIONS...

STATION/POSITION TIME  SKY/WX   TEMP    WIND        PRES    VSBY  WAVE   SWELL
                                AIR SEA DIR/SP/G                  HT/PER HT/PER
                 (UTC)          (F)     (DEG/KT/KT) (MB)    (MI)  (FT/S) (FT/S)
PORT ARANSAS     2300            84 84  110/ 12/ 14 1012.8F
BUOY 90 E PORT A 2250            86 87   40/ 12/ 14 1011.8F         2/ 5
BUOY 45 SE BAFFI 2250            85 86   60/  8/ 10 1011.7F         1/ 3
BUOY 200 E PT IS 2250            83 86  240/ 12/ 14 1012.6F         2/ 4
BUOY 15 E GALVES 2250            88 87  110/ 10/ 12 1011.6F         2/ 5   2/ 5
$$


USA.gov is the U.S. government's official web portal to all federal, state and local government web resources and services.